Dewpoint
65 64 65 63 60 56 48 48 50 47 44 48 52 54 55 58 52 53 58 58 59 61 69 73 74 74 74 74 73 73 73 73 72 72 73 73 72 72 72 71 71 71 71 73 72 72 72 72 72
61 63 62 62 55 49 49 49 49 49 53 52 53 58 54 53 56 57 59 60 60 61 65 70 75 74 74 74 74 73 72 72 72 72 72 73 72 72 71 71 71 71 71 71 73 72 72 71 71
61 62 60 58 55 51 52 49 51 53 54 54 51 56 55 54 57 59 59 60 62 63 64 71 75 74 74 74 74 74 73 73 73 73 72 72 72 72 71 71 71 71 71 71 71 72 72 71 71
58 59 65 56 52 56 56 52 53 53 52 53 57 56 56 56 57 58 59 60 61 64 69 74 75 75 74 74 74 74 74 73 73 72 72 72 71 71 71 71 72 72 72 71 71 72 72 72 71
54 56 53 51 48 49 50 53 52 53 53 54 56 55 56 58 58 59 59 59 62 68 70 72 75 74 74 74 74 73 72 72 72 72 71 71 72 72 72 71 72 71 71 71 71 71 71 72 71
50 51 52 49 46 47 49 53 54 52 53 55 55 57 57 58 58 60 60 60 63 66 68 72 74 74 74 73 73 72 72 71 72 72 72 72 71 72 70 71 71 72 72 71 71 71 70 71 71
48 46 50 48 46 45 46 52 55 55 53 57 55 54 57 56 58 61 63 64 64 67 69 70 70 72 73 73 72 72 71 71 71 71 71 71 71 70 71 70 71 71 71 70 71 71 71 70 71
49 40 40 46 47 43 46 48 54 52 54 57 57 53 54 56 57 61 64 64 65 67 67 68 68 70 71 72 71 71 71 72 72 72 72 72 71 71 71 70 71 71 71 70 70 71 70 70 70
43 40 37 38 41 41 47 46 49 52 54 55 57 55 56 57 57 59 62 64 68 65 64 66 65 69 72 72 71 73 72 71 69 69 67 69 70 67 67 69 69 71 71 70 69 71 70 70 70
40 38 36 37 39 40 43 44 50 56 53 54 58 57 56 56 56 59 61 63 65 62 63 65 66 68 71 72 73 71 65 62 64 67 66 64 69 68 62 68 70 71 70 70 70 71 70 70 69
39 39 41 44 42 43 45 45 53 50 54 55 57 57 56 55 55 56 58 62 62 62 62 65 69 71 71 71 68 68 67 63 62 65 65 64 67 67 66 68 70 71 69 68 69 70 70 67 68
34 39 40 39 44 43 49 52 45 47 55 56 57 57 55 54 57 57 56 57 59 62 63 64 68 70 70 70 65 66 67 64 63 63 66 67 68 69 70 70 69 68 70 69 70 68 68 67 69
34 34 36 38 42 41 43 44 45 49 52 55 57 56 54 53 56 57 58 59 61 60 62 62 66 71 71 69 66 64 64 64 63 64 67 68 68 68 68 68 70 69 71 70 69 69 67 67 67
30 32 34 36 37 42 42 51 46 50 52 53 53 53 53 53 54 56 59 59 59 62 63 62 66 71 71 68 67 65 67 70 67 68 70 70 69 69 70 68 68 69 70 69 69 67 67 67 65
28 31 32 34 36 44 42 47 47 51 51 51 50 51 52 51 53 55 58 59 62 64 65 66 66 68 70 71 72 70 69 69 72 71 70 70 71 69 69 70 68 69 70 69 68 68 67 65 66
26 29 31 31 33 46 46 44 49 50 50 49 50 50 51 51 53 57 57 58 62 64 67 67 67 68 69 71 72 71 70 71 71 72 70 70 70 69 71 70 70 70 70 69 68 67 66 65 65
25 31 31 28 31 36 38 42 48 49 48 47 48 48 51 52 55 56 59 60 61 64 66 67 69 69 70 72 71 70 67 68 69 69 69 70 68 67 70 68 69 70 71 69 69 68 68 66 64
26 29 25 27 27 31 37 39 47 47 47 46 49 49 49 51 56 57 59 60 62 64 65 67 68 69 70 72 72 70 69 69 69 70 69 68 69 68 72 68 67 71 69 68 68 67 69 67 67
27 24 23 23 24 25 29 37 42 45 46 46 48 49 50 49 53 58 59 58 62 64 65 66 67 70 70 69 68 67 67 68 69 69 69 68 69 68 69 71 69 70 70 70 68 69 68 67 68
25 19 20 22 22 22 27 32 40 42 41 46 52 52 48 50 51 55 56 59 57 63 65 67 68 70 70 69 69 68 68 70 70 69 69 70 69 69 68 69 69 69 70 69 70 70 70 67 68
23 20 25 23 22 21 24 25 40 41 39 44 46 56 56 51 50 55 54 55 58 63 65 69 70 72 71 71 70 69 70 69 70 69 70 70 71 70 70 71 70 69 70 70 70 70 69 67 67
20 26 20 19 19 17 18 19 30 29 37 39 43 51 46 51 51 55 55 55 56 63 65 69 70 72 72 72 70 68 67 65 67 69 70 71 71 71 72 71 71 71 70 70 69 70 69 68 66
23 23 16 16 17 18 20 16 29 33 31 38 39 46 57 58 50 53 55 56 57 61 64 68 71 72 72 73 72 69 69 69 69 69 69 70 71 71 71 72 71 71 72 69 69 69 68 69 66
21 19 18 16 16 14 15 17 30 40 45 46 39 42 53 52 51 53 54 56 57 61 63 66 72 73 73 74 73 72 69 68 68 69 67 69 70 71 72 71 71 70 71 71 70 70 71 70 68
20 17 13 13 12 12 25 27 38 45 41 45 46 43 43 47 49 53 54 55 57 60 63 65 71 72 74 73 73 73 73 72 70 70 69 69 70 69 70 71 69 70 71 70 70 70 71 72 71
15 12 10 13 20 24 31 32 39 43 41 45 46 44 43 43 48 50 53 57 58 61 62 64 71 73 73 73 73 73 74 73 73 71 69 70 70 69 69 67 62 67 72 72 71 70 71 70 71
17 16 16 12 12 21 32 46 46 45 44 44 46 45 43 43 46 55 53 57 59 61 63 63 70 71 72 72 73 73 73 73 73 72 72 72 71 69 69 71 70 70 71 71 71 70 70 70 70
16 16 15 12 14 21 37 37 46 51 54 53 46 46 43 46 50 52 54 59 60 60 62 64 69 70 70 71 72 73 73 73 73 73 72 71 69 70 70 71 71 70 70 71 71 71 71 70 69
16 15 17 17 19 24 32 30 51 47 48 54 54 53 55 56 57 58 59 60 61 61 63 63 65 69 69 71 71 71 71 71 72 70 70 68 70 70 71 71 72 72 71 71 71 70 70 71 70
17 13 17 15 26 24 30 32 50 51 53 59 58 55 56 56 58 59 61 66 68 68 69 69 69 69 70 70 70 70 68 66 66 66 67 70 65 65 65 68 71 71 71 72 71 71 71 70 69
Wind_Speed
12 16 15 6 10 1 13 16 17 9 19 19 16 19 20 15 16 11 28 27 31 26 23 21 20 21 19 18 17 15 15 14 14 13 13 13 13 12 12 12 12 11 11 11 12 12 11 12 11
14 20 12 12 7 9 16 15 9 21 23 17 19 12 24 24 27 31 23 30 28 27 23 23 20 20 19 18 17 16 15 13 13 12 11 11 10 10 9 9 10 9 8 8 7 10 11 10 11
14 19 4 11 7 13 5 16 21 18 15 11 8 18 11 25 31 21 29 30 29 24 23 23 20 20 18 18 17 16 15 13 12 11 10 8 8 7 6 6 5 6 6 6 6 6 9 9 9
10 16 8 5 17 16 11 15 17 10 10 13 18 16 12 23 20 29 29 29 26 27 24 21 19 19 17 17 17 14 14 12 12 10 9 7 5 4 3 3 3 4 5 5 6 6 8 9 10
16 12 6 10 14 17 14 21 12 13 8 15 20 21 20 15 22 28 25 25 27 28 25 21 19 18 18 16 15 15 14 12 10 9 8 5 3 2 2 1 2 2 4 6 6 6 5 6 9
14 4 8 3 12 18 17 16 11 12 14 23 23 18 11 21 21 30 23 22 27 27 25 21 19 18 17 16 15 13 12 10 8 7 6 4 2 1 1 3 3 3 5 6 6 6 6 7 8
9 10 12 22 14 15 6 19 19 2 17 11 21 22 18 22 21 29 25 23 21 19 24 21 19 17 17 16 14 13 11 9 8 8 5 4 3 4 3 5 6 5 5 5 7 6 6 7 9
8 3 13 13 7 11 11 8 16 10 21 17 9 15 22 24 21 24 31 22 22 25 22 19 19 17 15 13 14 13 12 11 11 9 8 7 5 8 11 7 8 9 8 7 6 6 7 8 9
11 3 9 12 13 6 8 12 3 11 18 9 15 17 24 24 24 23 28 25 14 17 20 20 19 18 15 14 14 13 12 12 11 9 8 5 5 10 13 18 11 11 9 9 8 8 8 9 9
6 10 14 14 15 11 12 5 9 16 15 16 17 21 25 24 21 27 26 21 24 19 15 17 18 17 16 13 13 8 6 8 6 4 4 8 12 12 13 19 18 13 9 9 9 9 9 8 8
8 13 12 25 1 18 5 8 19 19 13 15 22 20 22 24 21 17 24 28 26 24 19 17 17 18 17 13 8 5 2 2 1 2 5 9 4 17 14 23 14 10 11 10 10 9 9 10 4
6 12 18 3 6 13 22 14 18 13 25 22 20 19 19 20 25 14 15 15 24 24 20 21 22 18 16 13 9 6 3 5 5 4 7 8 9 9 12 27 15 7 8 8 10 8 5 1 11
12 7 12 8 9 7 15 18 16 16 20 20 23 18 19 17 22 23 21 17 23 22 20 18 19 20 15 12 9 8 7 8 7 7 9 10 11 10 5 3 10 7 5 10 11 14 10 17 15
7 4 10 10 10 5 16 21 15 17 16 20 19 20 20 20 21 18 19 9 19 18 15 14 18 16 16 12 13 11 9 8 10 9 10 12 13 12 7 3 4 4 9 12 11 6 8 6 11
12 12 11 6 10 15 16 13 21 18 17 17 17 17 20 16 20 20 27 21 22 20 20 19 17 17 14 12 11 9 10 10 10 11 10 13 11 11 5 3 5 6 11 12 8 12 5 11 12
11 13 7 7 9 17 27 13 18 19 17 16 19 17 15 14 18 22 18 19 19 22 24 20 18 19 17 15 13 11 11 9 12 11 11 14 15 7 5 2 3 7 10 9 10 13 11 11 7
11 13 11 11 9 19 10 16 19 17 20 17 17 15 20 18 20 17 14 15 19 23 20 25 22 21 18 18 15 14 16 13 12 11 10 8 11 9 8 5 7 11 11 10 11 5 5 2 4
4 1 5 15 8 7 16 16 21 16 22 18 21 18 16 19 24 23 23 26 21 21 18 18 21 20 21 19 16 17 15 14 12 12 11 11 13 13 13 9 11 13 11 11 0 6 3 4 8
10 8 6 10 10 6 7 16 21 18 19 19 22 21 21 15 21 25 22 21 26 22 19 16 15 19 16 14 13 12 11 14 13 12 14 8 11 9 11 11 12 13 7 7 5 9 5 3 8
10 7 8 11 11 10 11 13 24 20 15 19 28 20 20 20 18 16 21 24 21 20 17 17 13 15 12 12 12 8 5 12 15 17 14 11 8 8 8 11 13 11 10 10 8 5 2 1 8
11 15 8 11 11 10 8 7 22 21 15 18 16 23 19 12 20 21 18 20 19 21 19 19 16 15 14 13 11 11 11 9 10 11 7 9 3 11 13 9 13 10 10 10 9 9 9 6 2
14 14 4 5 10 13 19 16 14 14 18 16 19 39 41 31 23 22 20 17 17 22 20 20 18 16 15 12 10 10 6 7 11 15 14 9 19 20 16 17 15 13 9 11 11 11 10 9 8
1 12 8 8 13 19 21 18 22 18 13 16 19 23 33 39 27 22 21 18 19 20 20 20 20 17 14 15 13 8 12 13 8 9 14 15 18 20 19 18 18 14 11 11 13 8 8 9 9
5 4 13 13 15 18 20 25 21 11 3 10 18 15 35 32 24 23 18 19 18 20 19 19 20 17 15 14 13 13 8 11 2 10 12 14 15 16 16 16 16 15 12 11 10 11 11 12 11
12 13 15 17 19 22 14 15 6 13 8 11 28 24 17 13 23 24 21 21 17 20 17 19 20 16 14 14 13 13 12 10 9 4 8 13 13 5 9 14 7 15 14 15 11 7 9 11 12
16 21 19 15 8 15 19 6 5 20 31 36 32 14 15 17 22 25 24 23 19 20 15 15 20 16 14 13 13 11 11 9 8 10 10 9 12 11 9 10 13 23 14 14 12 13 14 14 16
15 18 17 21 22 4 3 11 31 11 15 28 15 16 19 20 9 23 24 22 20 20 17 14 19 16 14 13 11 11 7 6 8 7 6 8 8 12 13 5 16 26 11 14 14 16 18 20 17
17 21 17 14 15 10 7 2 16 7 24 40 15 19 16 12 12 15 16 15 13 13 18 15 20 17 14 12 14 12 11 8 8 8 6 5 7 8 10 12 10 8 9 13 16 15 15 18 18
16 19 18 23 8 4 5 5 17 20 11 38 37 11 11 13 12 10 9 10 11 6 8 15 11 13 7 8 10 6 4 6 9 6 4 8 7 5 5 8 10 9 10 13 15 19 18 17 19
13 17 11 15 5 16 7 18 17 25 32 20 23 16 17 20 18 15 13 17 18 16 15 15 20 17 16 11 6 5 5 1 5 11 9 8 2 5 8 10 9 10 12 12 14 17 17 22 22
Wind_Direction
259 250 237 293 16 200 82 69 51 30 84 78 97 88 85 152 167 128 149 128 130 137 135 142 137 133 130 129 130 129 125 122 118 111 106 102 98 96 96 97 93 92 95 100 111 113 113 116 115
271 270 244 58 40 92 88 109 110 66 49 43 90 133 75 92 100 132 119 135 137 134 146 140 136 136 133 132 133 133 130 125 121 119 114 107 104 101 99 97 100 103 104 107 112 126 126 129 131
260 264 293 114 203 87 110 83 68 72 65 48 74 55 60 109 130 124 132 133 131 139 142 132 136 138 136 134 135 134 131 128 126 124 118 112 108 107 105 106 119 129 130 134 139 139 139 142 141
243 238 79 103 152 127 164 71 98 66 76 69 93 73 105 114 111 126 139 133 135 136 120 135 137 138 139 137 133 125 125 127 124 123 121 116 112 114 115 144 166 158 158 173 172 172 166 159 153
244 264 63 95 68 85 93 122 93 88 86 74 85 113 96 108 124 128 130 138 129 113 127 133 137 139 139 138 134 131 131 129 128 128 121 117 104 80 68 301 220 198 182 176 182 188 176 175 171
281 105 58 28 59 48 59 101 96 89 89 81 103 120 120 111 135 119 141 127 137 128 131 131 130 133 137 138 135 133 132 130 122 105 95 86 55 35 243 243 242 223 207 187 178 182 182 180 181
253 66 173 60 34 75 67 91 100 204 111 136 109 115 135 130 150 126 109 125 131 110 125 135 138 138 138 135 134 131 131 124 114 100 91 57 342 302 275 256 221 216 223 207 177 180 186 189 187
360 38 77 120 147 64 82 76 98 108 110 117 130 133 140 140 149 133 123 136 123 134 135 153 136 151 145 141 137 132 124 98 77 58 46 20 303 306 323 271 237 212 207 208 197 186 193 195 193
52 27 93 82 93 120 113 92 96 124 111 91 84 143 138 148 147 138 128 129 91 136 147 151 160 152 139 140 146 140 130 102 81 53 25 327 36 37 9 315 263 227 209 209 202 194 202 201 208
213 97 99 92 104 83 74 58 90 3 112 112 106 138 136 158 155 146 137 149 156 151 146 144 142 144 134 147 147 165 196 157 131 73 336 303 76 64 22 298 245 225 214 217 210 200 211 214 217
308 87 70 96 167 90 104 32 125 168 153 129 121 142 145 165 155 162 155 150 159 147 154 175 120 135 149 160 153 159 138 275 246 144 290 272 245 166 175 253 220 217 212 216 202 201 221 210 127
86 121 92 74 124 105 101 170 67 63 112 118 129 144 154 171 140 187 161 153 140 146 162 157 142 155 165 174 175 169 151 218 231 240 257 259 251 238 217 204 186 197 235 212 238 228 199 130 204
119 109 117 136 123 109 82 82 84 90 97 118 127 141 156 171 156 176 150 147 135 151 159 155 153 151 164 177 167 195 191 213 227 216 238 247 267 293 258 173 159 212 38 248 236 215 207 220 198
109 143 136 174 132 61 115 111 101 97 114 120 144 155 160 165 162 137 109 200 151 143 135 172 151 157 167 179 163 195 210 188 209 221 218 219 237 264 169 198 252 201 193 242 248 241 231 259 234
155 176 164 127 143 91 26 127 104 113 127 142 141 157 151 168 157 149 158 166 147 167 162 157 169 173 172 170 174 195 200 216 214 219 234 237 239 227 162 170 254 268 211 225 222 237 218 234 256
222 209 96 128 153 137 119 129 127 138 149 141 150 144 154 150 157 152 168 171 149 138 165 171 171 171 180 177 187 198 232 206 214 214 226 233 242 227 162 200 256 275 289 247 259 241 231 231 240
204 115 209 154 216 160 137 134 151 167 148 138 148 154 157 156 141 147 117 130 166 159 163 162 177 176 170 171 185 194 215 220 216 224 227 232 213 210 171 191 266 265 263 261 273 240 220 300 281
83 352 201 140 169 253 156 142 158 181 153 161 155 152 155 166 163 166 166 168 170 156 178 157 168 172 170 180 185 203 205 209 208 204 223 234 227 190 161 192 234 251 243 254 12 245 280 267 299
270 189 146 114 138 242 243 157 165 182 181 166 166 164 163 172 166 159 170 159 150 167 163 165 186 161 175 179 204 201 192 207 227 225 226 199 224 190 181 198 224 232 247 246 228 215 194 288 326
231 233 229 150 162 216 221 189 162 184 201 173 122 243 165 165 153 153 170 168 180 162 161 167 185 163 179 200 214 212 192 113 266 236 215 223 188 226 216 225 228 209 229 240 240 259 145 201 65
238 250 118 290 170 215 265 240 162 183 190 174 181 98 305 208 159 163 175 175 174 160 168 169 181 174 186 225 213 200 204 175 195 248 250 195 259 233 233 249 240 214 206 229 244 234 229 186 158
225 329 91 240 271 249 198 220 206 184 181 206 191 139 190 224 159 163 171 179 177 158 171 169 177 178 189 210 240 225 224 232 215 202 212 201 186 223 202 210 241 242 215 214 223 232 228 174 202
156 226 279 255 252 254 251 222 182 167 207 193 217 174 155 265 160 162 172 178 170 162 166 168 172 184 197 192 227 218 219 231 220 243 206 203 193 202 205 198 212 229 216 238 222 247 187 184 204
88 263 233 232 241 260 258 227 152 151 143 329 215 202 166 210 156 158 174 163 167 160 163 168 168 181 193 184 203 239 261 270 251 245 228 209 210 202 206 204 200 211 232 244 235 231 194 198 214
239 249 251 226 224 236 351 331 150 149 70 285 274 197 202 183 162 163 165 157 168 155 166 165 164 178 187 201 202 207 245 263 281 274 296 319 325 358 164 235 239 212 211 232 244 273 231 215 210
210 232 254 279 286 291 307 35 199 151 157 223 256 202 211 220 176 171 163 156 157 151 169 174 161 171 191 200 204 212 209 227 248 252 257 290 305 322 133 81 312 279 210 220 216 218 241 235 223
259 255 282 289 283 232 64 33 16 327 252 226 189 198 198 217 175 173 150 158 152 154 165 172 156 167 183 196 202 208 198 217 275 289 274 272 319 321 351 152 182 243 221 220 219 227 232 238 219
249 272 296 237 260 266 348 304 199 40 303 318 181 188 178 172 113 127 134 110 137 163 167 179 161 170 185 204 186 184 194 196 235 255 266 313 315 314 323 326 334 324 272 254 237 233 242 233 239
223 250 261 275 305 309 194 239 160 153 124 253 252 157 128 121 115 114 113 138 170 164 129 164 145 123 130 98 97 94 115 210 219 240 244 247 266 301 290 305 311 293 271 263 255 246 240 235 243
234 225 263 262 8 317 251 251 180 174 150 228 250 159 152 136 124 121 109 81 72 71 61 66 86 88 96 102 116 155 154 357 238 213 241 249 5 4 335 323 286 254 269 279 272 263 255 248 243